CW1780 Weather Reports


time (UTC)temp
C
wind
direction
speed
KPH
gust
KPH
rain 1hr
cm
rain 24hr
cm
rain mn
cm
humidity
%
barometer
mb
20260508125003 7 308 0.0 4.8 0.00 0.00 0.00 80 1016.9
20260508124003 6 310 1.6 4.8 0.00 0.00 0.00 82 1017.0
20260508123003 6 330 0.0 4.8 0.00 0.00 0.00 86 1017.0
20260508122003 5 47 0.0 1.6 0.00 0.00 0.00 91 1016.9
20260508121003 5 47 0.0 1.6 0.00 0.00 0.00 94 1016.6
20260508120003 4 35 0.0 1.6 0.00 0.00 0.00 95 1016.6
20260508115003 3 20 0.0 3.2 0.00 0.00 0.00 96 1016.4
20260508114003 3 0 0.0 0.0 0.00 0.00 0.00 96 1016.4
20260508113024 2 0 0.0 0.0 0.00 0.00 0.00 96 1016.3
20260508112003 1 0 0.0 0.0 0.00 0.00 0.00 95 1016.3
20260508111003 1 0 0.0 0.0 0.00 0.00 0.00 94 1016.3
20260508110004 1 0 0.0 0.0 0.00 0.00 0.00 94 1016.2
20260508105003 1 0 0.0 0.0 0.00 0.00 0.00 94 1016.2
20260508104007 1 0 0.0 0.0 0.00 0.00 0.00 94 1015.9
20260508103003 1 0 0.0 0.0 0.00 0.00 0.00 94 1015.9
20260508102003 1 0 0.0 0.0 0.00 0.00 0.00 94 1015.9
20260508101007 1 0 0.0 0.0 0.00 0.00 0.00 94 1015.9
20260508100028 1 0 0.0 0.0 0.00 0.00 0.00 94 1015.8
20260508095029 1 0 0.0 0.0 0.00 0.00 0.00 93 1015.8
20260508094029 2 0 0.0 0.0 0.00 0.00 0.00 93 1015.7
20260508093004 2 0 0.0 0.0 0.00 0.00 0.00 93 1015.8
20260508092024 2 0 0.0 0.0 0.00 0.00 0.00 93 1015.8
20260508091003 2 0 0.0 0.0 0.00 0.00 0.00 93 1015.6
20260508090004 2 0 0.0 0.0 0.00 0.00 0.00 93 1015.7
20260508085003 2 0 0.0 0.0 0.00 0.00 0.00 93 1015.7
20260508084003 2 0 0.0 0.0 0.00 0.00 0.00 93 1015.6
20260508083003 2 0 0.0 0.0 0.00 0.00 0.00 93 1015.7
20260508082003 2 0 0.0 0.0 0.00 0.00 0.00 93 1015.7
20260508081003 2 0 0.0 0.0 0.00 0.03 0.00 93 1015.7
20260508080003 2 0 0.0 0.0 0.00 0.03 0.00 92 1015.5
20260508075024 3 0 0.0 0.0 0.00 0.03 0.00 92 1015.5
20260508074003 3 0 0.0 0.0 0.00 0.03 0.00 92 1015.4
20260508073003 3 0 0.0 0.0 0.00 0.03 0.00 91 1015.3
20260508072004 3 0 0.0 0.0 0.00 0.03 0.00 91 1015.3
20260508071003 3 0 0.0 0.0 0.00 0.03 0.00 90 1015.2
20260508070004 3 0 0.0 0.0 0.00 0.03 0.00 90 1015.0
20260508065003 4 0 0.0 0.0 0.00 0.03 0.00 90 1015.1
20260508064003 4 0 0.0 0.0 0.00 0.03 0.00 95 1015.2
20260508063003 4 0 0.0 0.0 0.00 0.03 0.00 90 1015.0
20260508062003 5 0 0.0 0.0 0.00 0.03 0.00 90 1015.1
20260508061003 5 0 0.0 0.0 0.00 0.03 0.00 89 1015.2
20260508060004 5 0 0.0 0.0 0.00 0.03 0.00 88 1015.2
20260508055003 5 0 0.0 0.0 0.00 0.03 0.00 89 1015.3
20260508054003 5 0 0.0 0.0 0.00 0.03 0.00 89 1015.2
20260508053024 6 0 0.0 0.0 0.00 0.03 0.00 89 1015.2
20260508052024 6 0 0.0 0.0 0.00 0.03 0.00 89 1015.2
20260508051003 5 0 0.0 0.0 0.00 0.03 0.00 88 1015.1
20260508050024 5 0 0.0 0.0 0.00 0.03 0.00 88 1015.0
20260508045003 5 0 0.0 0.0 0.00 0.03 0.00 87 1014.8
20260508044003 6 0 0.0 0.0 0.00 0.03 0.00 86 1014.6
20260508043003 6 0 0.0 0.0 0.00 0.03 0.00 86 1014.6
20260508042024 6 0 0.0 0.0 0.00 0.03 0.00 85 1014.4
20260508041024 6 0 0.0 0.0 0.00 0.03 0.00 85 1014.4
20260508040004 6 0 0.0 0.0 0.00 0.03 0.00 85 1014.4
20260508035003 6 0 0.0 0.0 0.00 0.03 0.03 86 1014.3
20260508034003 6 0 0.0 0.0 0.00 0.03 0.03 86 1014.3
20260508033003 6 0 0.0 0.0 0.00 0.03 0.03 86 1014.2
20260508032024 6 0 0.0 0.0 0.00 0.03 0.03 86 1014.1
20260508031024 6 0 0.0 0.0 0.00 0.03 0.03 87 1014.0
20260508030003 6 0 0.0 0.0 0.00 0.03 0.03 86 1014.1
20260508025003 7 0 0.0 0.0 0.00 0.08 0.03 85 1014.0
20260508024003 7 0 0.0 0.0 0.00 0.15 0.03 85 1013.8
20260508023024 7 0 0.0 0.0 0.00 0.33 0.03 84 1013.9
20260508022003 7 0 0.0 0.0 0.00 0.66 0.03 84 1013.6
20260508021003 7 0 0.0 0.0 0.00 0.66 0.03 84 1013.6
20260508020003 7 0 0.0 0.0 0.00 0.66 0.03 84 1013.5
20260508015003 7 0 0.0 0.0 0.00 0.86 0.03 84 1013.4
20260508014003 8 0 0.0 0.0 0.00 0.91 0.03 83 1013.1
20260508013003 8 0 0.0 0.0 0.00 1.22 0.03 82 1012.8
20260508012003 8 0 0.0 0.0 0.00 1.42 0.03 82 1012.9
20260508011003 8 0 0.0 0.0 0.00 1.52 0.03 80 1012.5
20260508010003 8 0 0.0 0.0 0.00 1.52 0.03 78 1012.3
20260508005024 9 0 0.0 0.0 0.00 1.52 0.03 77 1012.5
20260508004024 9 0 0.0 0.0 0.00 1.52 0.03 75 1012.4
20260508003003 10 0 0.0 0.0 0.00 1.52 0.03 74 1012.4
20260508002024 10 0 0.0 0.0 0.00 1.52 0.03 73 1012.4
20260508001003 10 0 0.0 0.0 0.00 1.52 0.03 72 1012.5
20260508000004 11 0 0.0 0.0 0.00 1.52 0.03 71 1012.4
20260507235003 11 20 0.0 1.6 0.00 1.52 0.03 69 1012.4
20260507234003 11 19 0.0 1.6 0.00 1.52 0.03 69 1012.4
20260507233003 12 19 0.0 3.2 0.00 1.52 0.03 67 1012.3
20260507232003 12 328 0.0 4.8 0.00 1.52 0.03 68 1012.3
20260507231003 12 68 0.0 8.0 0.00 1.52 0.03 66 1012.1
20260507230024 12 48 0.0 4.8 0.00 1.52 0.03 67 1012.1
20260507225003 12 57 0.0 3.2 0.00 1.52 0.03 70 1012.0
20260507224003 11 74 1.6 11.3 0.00 1.52 0.03 69 1012.0
20260507223003 12 75 1.6 8.0 0.00 1.52 0.03 69 1011.8
20260507222003 12 68 1.6 11.3 0.00 1.52 0.03 67 1011.7
20260507221003 12 45 1.6 8.0 0.00 1.52 0.03 66 1011.6
20260507220003 13 105 1.6 6.4 0.00 1.52 0.03 65 1011.7
20260507215003 13 80 1.6 11.3 0.00 1.52 0.03 62 1011.5
20260507214003 14 64 1.6 9.7 0.00 1.52 0.03 62 1011.4
20260507213003 13 84 1.6 9.7 0.00 1.52 0.03 65 1011.1
20260507212003 13 44 1.6 8.0 0.00 1.52 0.03 70 1011.1
20260507211003 12 87 1.6 8.0 0.00 1.52 0.03 70 1011.1
20260507210024 12 66 1.6 4.8 0.00 1.52 0.03 75 1011.0
20260507205003 11 71 1.6 16.1 0.00 1.52 0.03 73 1011.1
20260507204003 12 88 1.6 8.0 0.00 1.52 0.03 73 1011.0
20260507203024 12 67 1.6 8.0 0.00 1.52 0.03 73 1011.0
20260507202003 12 45 1.6 9.7 0.00 1.52 0.03 72 1010.9
20260507201003 13 64 1.6 11.3 0.00 1.52 0.03 72 1010.7
20260507200003 13 70 1.6 8.0 0.00 1.52 0.03 73 1010.5
20260507195003 12 60 0.0 8.0 0.00 1.52 0.03 77 1010.6
20260507194003 12 97 1.6 9.7 0.00 1.52 0.03 76 1010.7
20260507193024 12 61 1.6 8.0 0.00 1.52 0.03 76 1011.0
20260507192003 12 64 1.6 12.9 0.00 1.52 0.03 78 1011.1
20260507191003 12 66 0.0 9.7 0.00 1.52 0.03 77 1011.1
20260507190004 12 52 1.6 6.4 0.00 1.52 0.03 79 1011.4
20260507185003 12 42 1.6 8.0 0.00 1.52 0.03 78 1011.4
20260507184024 12 61 1.6 11.3 0.00 1.52 0.03 78 1011.4
20260507183024 12 62 0.0 12.9 0.00 1.52 0.03 79 1011.4
20260507182003 12 125 0.0 4.8 0.00 1.52 0.03 79 1011.3
20260507181003 12 59 1.6 4.8 0.00 1.52 0.03 79 1011.4
20260507180003 12 59 1.6 6.4 0.00 1.52 0.03 78 1011.3
20260507175003 12 61 1.6 4.8 0.00 1.52 0.03 80 1011.0
20260507174003 12 53 1.6 8.0 0.00 1.52 0.03 81 1011.1
20260507173003 12 80 1.6 8.0 0.00 1.52 0.03 80 1011.1
20260507172003 12 90 1.6 8.0 0.00 1.52 0.03 80 1011.2
20260507171003 12 79 1.6 11.3 0.00 1.52 0.03 82 1011.2
20260507170024 11 19 0.0 6.4 0.00 1.52 0.03 83 1011.4
20260507165003 11 9 0.0 4.8 0.00 1.52 0.03 84 1011.4
20260507164003 11 355 1.6 6.4 0.00 1.55 0.03 84 1011.4
20260507163024 11 70 3.2 11.3 0.00 1.55 0.03 84 1011.5
20260507162003 11 63 1.6 14.5 0.00 1.55 0.03 85 1011.6
20260507161003 11 77 0.0 6.4 0.00 1.55 0.03 84 1011.3
20260507160024 10 109 0.0 6.4 0.00 1.55 0.03 86 1011.3
20260507155003 10 28 0.0 4.8 0.00 1.57 0.03 87 1011.4
20260507154003 10 88 1.6 9.7 0.00 1.57 0.03 87 1011.5
20260507153003 10 104 0.0 8.0 0.00 1.57 0.03 85 1011.5
20260507152003 10 65 0.0 6.4 0.00 1.57 0.03 86 1011.7
20260507151003 11 109 0.0 4.8 0.00 1.57 0.03 87 1011.6
20260507150003 11 102 0.0 4.8 0.00 1.57 0.03 88 1011.8
20260507145003 11 91 0.0 4.8 0.00 1.57 0.03 87 1011.8
20260507144003 11 360 0.0 4.8 0.00 1.57 0.03 87 1011.6
20260507143003 11 3 0.0 3.2 0.00 1.57 0.03 87 1011.4
20260507142003 11 82 0.0 3.2 0.00 1.57 0.03 88 1011.4
20260507141003 11 79 0.0 8.0 0.00 1.57 0.03 89 1011.3
20260507140003 11 80 0.0 4.8 0.00 1.57 0.03 89 1011.5
20260507135024 11 83 1.6 1.6 0.00 1.57 0.03 91 1011.5
20260507134003 11 86 0.0 8.0 0.00 1.57 0.03 90 1011.4
20260507133003 11 95 0.0 4.8 0.00 1.57 0.03 89 1011.4
20260507132024 11 142 0.0 1.6 0.00 1.63 0.03 89 1011.3
20260507131003 11 84 0.0 1.6 0.00 1.70 0.03 90 1011.4
20260507130024 11 90 0.0 4.8 0.00 1.80 0.03 89 1011.5